Location: Newark
(42.8481°N, 0.4872°E)
Time: 14:16:29
(UTC+00:00)

Transit 4A - All Passes

Search period start: 30 October 2020 00:00
Search period end: 09 November 2020 00:00
Orbit: 862 x 982 km, 66.8° (Epoch: 29 October)

Date Brightness Start Highest point End Pass type
(mag) Time Alt. Az. Time Alt. Az. Time Alt. Az.
30 Oct - 00:28:11 10° NW 00:34:10 43° WSW 00:40:00 10° S night (unlit)
30 Oct - 13:49:17 10° S 13:55:02 41° ESE 14:00:56 10° NE daylight
30 Oct - 15:35:34 10° WSW 15:41:25 40° NW 15:47:26 10° NNE daylight
30 Oct - 17:27:24 10° NW 17:29:44 12° NNW 17:32:05 10° N visible
30 Oct - 21:05:49 10° N 21:09:17 15° NNE 21:12:44 10° ENE visible
30 Oct - 22:50:57 10° NNW 22:57:14 53° NE 23:03:22 10° SE visible
31 Oct - 00:37:55 10° NW 00:43:17 29° WSW 00:48:32 10° SSW night (unlit)
31 Oct - 13:58:08 10° SSW 14:04:12 60° ESE 14:10:29 10° NE daylight
31 Oct - 15:45:33 10° WSW 15:51:01 30° NW 15:56:35 10° NNE daylight
31 Oct - 21:14:43 10° N 21:19:08 19° NE 21:23:29 10° E visible
31 Oct - 23:00:13 10° NNW 23:06:40 75° ENE 23:12:55 10° SE night (unlit)
01 Nov - 00:47:57 10° WNW 00:52:19 20° WSW 00:56:36 10° SSW night (unlit)
01 Nov - 12:25:06 10° SE 12:28:07 14° E 12:31:10 10° ENE daylight
01 Nov - 14:07:15 10° SSW 14:13:29 85° ESE 14:19:55 10° NNE daylight
01 Nov - 15:55:48 10° W 16:00:41 23° NW 16:05:40 10° N daylight
01 Nov - 21:23:45 10° NNW 21:28:53 24° NE 21:33:56 10° E visible
01 Nov - 23:09:34 10° NNW 23:16:00 79° WSW 23:22:14 10° SSE night (unlit)
02 Nov - 00:58:48 10° WNW 01:01:16 12° W 01:03:44 10° WSW night (unlit)
02 Nov - 12:32:32 10° SSE 12:37:05 22° ESE 12:41:43 10° ENE daylight
02 Nov - 14:16:37 10° SW 14:22:50 69° WNW 14:29:15 10° NNE daylight
02 Nov - 16:06:19 10° WNW 16:10:28 18° NW 16:14:39 10° N daylight
02 Nov - 19:49:13 10° NNE 19:49:55 10° NNE 19:50:37 10° NNE visible
02 Nov - 21:32:51 10° NNW 21:38:33 32° NE 21:44:08 10° ESE visible
02 Nov - 23:19:01 10° NW 23:25:14 55° WSW 23:31:17 10° S night (unlit)
03 Nov - 12:40:45 10° S 12:46:09 32° ESE 12:51:41 10° NE daylight
03 Nov - 14:26:13 10° SW 14:32:17 49° NW 14:38:30 10° NNE daylight
03 Nov - 16:17:09 10° WNW 16:20:20 14° NNW 16:23:31 10° N daylight
03 Nov - 19:57:12 10° N 19:59:54 13° NNE 20:02:35 10° NE visible
03 Nov - 21:42:00 10° NNW 21:48:06 43° NE 21:54:04 10° ESE visible
03 Nov - 23:28:37 10° NW 23:34:24 37° WSW 23:40:03 10° S night (unlit)
04 Nov - 12:49:22 10° S 12:55:17 47° ESE 13:01:21 10° NE daylight
04 Nov - 14:36:04 10° WSW 14:41:49 36° NW 14:47:41 10° NNE daylight
04 Nov - 16:28:31 10° NW 16:30:16 11° NNW 16:32:02 10° N daylight
04 Nov - 20:05:58 10° N 20:09:48 16° NNE 20:13:34 10° ENE visible
04 Nov - 21:51:14 10° NNW 21:57:35 60° NE 22:03:46 10° SE visible
04 Nov - 23:38:26 10° NW 23:43:29 25° WSW 23:48:26 10° SSW night (unlit)
05 Nov - 11:19:06 10° E 11:19:21 10° E 11:19:36 10° E daylight
05 Nov - 12:58:18 10° SSW 13:04:29 68° ESE 13:10:51 10° NE daylight
05 Nov - 14:46:09 10° W 14:51:26 27° NW 14:56:48 10° NNE daylight
05 Nov - 20:14:55 10° N 20:19:36 21° NE 20:24:13 10° E visible
05 Nov - 22:00:32 10° NNW 22:06:58 84° ENE 22:13:15 10° SSE visible
05 Nov - 23:48:40 10° WNW 23:52:29 17° WSW 23:56:16 10° SW night (unlit)
06 Nov - 11:24:34 10° SE 11:28:17 16° ESE 11:32:03 10° ENE daylight
06 Nov - 13:07:31 10° SSW 13:13:48 85° WNW 13:20:15 10° NNE daylight
06 Nov - 14:56:29 10° W 15:01:09 21° NW 15:05:52 10° N daylight
06 Nov - 20:23:58 10° NNW 20:29:20 27° NE 20:34:34 10° E visible
06 Nov - 22:09:55 10° NW 22:16:17 69° WSW 22:22:27 10° SSE visible
07 Nov - 00:00:38 10° W 00:01:26 10° W 00:02:13 10° WSW night (unlit)
07 Nov - 11:32:22 10° SSE 11:37:18 25° ESE 11:42:18 10° NE daylight
07 Nov - 13:16:59 10° SW 13:23:10 61° NW 13:29:33 10° NNE daylight
07 Nov - 15:07:07 10° WNW 15:10:57 16° NNW 15:14:49 10° N daylight
07 Nov - 18:48:48 10° N 18:50:28 11° NNE 18:52:07 10° NE visible
07 Nov - 20:33:05 10° NNW 20:38:56 36° NE 20:44:40 10° ESE visible
07 Nov - 22:19:25 10° NW 22:25:30 47° WSW 22:31:25 10° S visible
08 Nov - 11:40:44 10° S 11:46:22 37° ESE 11:52:08 10° NE daylight
08 Nov - 13:26:41 10° WSW 13:32:39 44° NW 13:38:46 10° NNE daylight
08 Nov - 15:18:06 10° NW 15:20:51 13° NNW 15:23:36 10° N daylight
08 Nov - 18:57:17 10° N 19:00:25 14° NNE 19:03:31 10° ENE visible
08 Nov - 20:42:16 10° NNW 20:48:29 49° NE 20:54:31 10° SE visible
08 Nov - 22:29:05 10° NW 22:34:38 32° WSW 22:40:03 10° S visible
